Time,TemperatureF,DewpointF,PressureIn,WindDirection,WindDirectionDegrees,WindSpeedMPH,WindSpeedGustMPH,Humidity,HourlyPrecipIn,Conditions,Clouds,dailyrainin,SoftwareType,DateUTC
2013-08-28 00:00:00,49.5,0.0,0.00,NNW,335,1.7,3.5,0,0.00,CLR,FEW,0.00,WeatherDisplay:10.37,2013-08-28 07:00:00,
2013-08-28 00:05:00,49.4,0.0,0.00,NNW,335,0.0,1.2,0,0.00,CLR,FEW,0.00,WeatherDisplay:10.37,2013-08-28 07:05:00,
2013-08-28 00:10:00,49.3,0.0,0.00,NNW,335,0.2,1.2,0,0.00,CLR,FEW,0.00,WeatherDisplay:10.37,2013-08-28 07:10:00,
2013-08-28 00:15:00,49.4,0.0,0.00,NNW,335,0.0,0.0,0,0.00,CLR,FEW,0.00,WeatherDisplay:10.37,2013-08-28 07:15:00,
2013-08-28 00:20:00,49.2,0.0,0.00,NNW,335,0.0,0.0,0,0.00,CLR,FEW,0.00,WeatherDisplay:10.37,2013-08-28 07:20:00,
2013-08-28 00:25:00,48.8,0.0,0.00,NNW,335,0.0,0.0,0,0.00,CLR,FEW,0.00,WeatherDisplay:10.37,2013-08-28 07:25:00,
2013-08-28 00:30:00,48.4,0.0,0.00,NNW,335,1.4,2.3,0,0.00,CLR,FEW,0.00,WeatherDisplay:10.37,2013-08-28 07:30:00,
2013-08-28 00:35:00,47.8,0.0,0.00,NNW,335,1.4,3.5,0,0.00,CLR,FEW,0.00,WeatherDisplay:10.37,2013-08-28 07:35:00,
2013-08-28 00:40:00,47.2,0.0,0.00,NNW,335,1.6,3.5,0,0.00,CLR,FEW,0.00,WeatherDisplay:10.37,2013-08-28 07:40:00,
2013-08-28 00:45:00,46.8,0.0,0.00,NNW,335,0.0,0.0,0,0.00,CLR,FEW,0.00,WeatherDisplay:10.37,2013-08-28 07:45:00,
2013-08-28 00:50:00,46.8,0.0,0.00,NNW,335,0.0,0.0,0,0.00,CLR,FEW,0.00,WeatherDisplay:10.37,2013-08-28 07:50:00,
2013-08-28 00:55:00,46.6,0.0,0.00,NNW,335,0.0,1.2,0,0.00,CLR,FEW,0.00,WeatherDisplay:10.37,2013-08-28 07:55:00,
2013-08-28 01:00:00,46.5,0.0,0.00,NNW,335,1.2,3.5,0,0.00,CLR,FEW,0.00,WeatherDisplay:10.37,2013-08-28 08:00:00,
2013-08-28 01:05:00,46.5,0.0,0.00,NNW,335,0.0,0.0,0,0.00,CLR,FEW,0.00,WeatherDisplay:10.37,2013-08-28 08:05:00,
2013-08-28 01:10:00,46.6,0.0,0.00,NNW,335,0.0,0.0,0,0.00,CLR,FEW,0.00,WeatherDisplay:10.37,2013-08-28 08:10:00,
2013-08-28 01:15:00,46.7,0.0,0.00,NNW,335,0.1,1.0,0,0.00,CLR,FEW,0.00,WeatherDisplay:10.37,2013-08-28 08:15:00,
2013-08-28 01:20:00,46.7,0.0,0.00,NNW,334,0.0,0.0,0,0.00,CLR,FEW,0.00,WeatherDisplay:10.37,2013-08-28 08:20:00,
2013-08-28 01:25:00,46.7,0.0,0.00,NNW,334,0.0,0.0,0,0.00,CLR,FEW,0.00,WeatherDisplay:10.37,2013-08-28 08:25:00,
2013-08-28 01:30:00,46.8,0.0,0.00,NNW,334,0.9,2.3,0,0.00,CLR,FEW,0.00,WeatherDisplay:10.37,2013-08-28 08:30:00,
2013-08-28 01:35:00,46.8,0.0,0.00,NNW,334,0.2,1.2,0,0.00,CLR,FEW,0.00,WeatherDisplay:10.37,2013-08-28 08:35:00,
2013-08-28 01:40:00,46.7,0.0,0.00,NNW,334,1.3,2.3,0,0.00,CLR,FEW,0.00,WeatherDisplay:10.37,2013-08-28 08:40:00,
2013-08-28 01:45:00,46.3,0.0,0.00,NNW,334,1.4,3.5,0,0.00,CLR,FEW,0.00,WeatherDisplay:10.37,2013-08-28 08:45:00,
2013-08-28 01:50:00,46.1,0.0,0.00,NNW,334,0.8,1.2,0,0.00,CLR,FEW,0.00,WeatherDisplay:10.37,2013-08-28 08:50:00,
2013-08-28 01:55:00,45.8,0.0,0.00,NNW,334,0.0,0.0,0,0.00,CLR,FEW,0.00,WeatherDisplay:10.37,2013-08-28 08:55:00,
2013-08-28 02:00:00,45.8,0.0,0.00,NNW,334,0.0,0.0,0,0.00,CLR,FEW,0.00,WeatherDisplay:10.37,2013-08-28 09:00:00,
2013-08-28 02:05:00,45.7,0.0,0.00,NNW,334,1.2,2.3,0,0.00,CLR,FEW,0.00,WeatherDisplay:10.37,2013-08-28 09:05:00,
2013-08-28 02:10:00,45.6,0.0,0.00,NNW,334,1.9,2.3,0,0.00,CLR,FEW,0.00,WeatherDisplay:10.37,2013-08-28 09:10:00,
2013-08-28 02:15:00,45.7,0.0,0.00,NNW,334,0.1,1.0,0,0.00,CLR,FEW,0.00,WeatherDisplay:10.37,2013-08-28 09:15:00,
2013-08-28 02:20:00,45.3,0.0,0.00,NNW,334,0.2,1.2,0,0.00,CLR,FEW,0.00,WeatherDisplay:10.37,2013-08-28 09:20:00,
2013-08-28 02:25:00,44.3,0.0,0.00,NNW,335,0.5,3.5,0,0.00,CLR,FEW,0.00,WeatherDisplay:10.37,2013-08-28 09:25:00,
2013-08-28 02:30:00,43.6,0.0,0.00,NNW,335,0.1,1.2,0,0.00,CLR,FEW,0.00,WeatherDisplay:10.37,2013-08-28 09:30:00,
2013-08-28 02:34:00,43.3,0.0,0.00,NNW,335,0.6,2.0,0,0.00,CLR,FEW,0.00,WeatherDisplay:10.37,2013-08-28 09:34:00,
2013-08-28 02:39:00,42.7,0.0,0.00,NNW,335,0.0,1.2,0,0.00,CLR,FEW,0.00,WeatherDisplay:10.37,2013-08-28 09:39:00,
2013-08-28 02:44:00,42.6,0.0,0.00,NNW,334,0.0,0.0,0,0.00,CLR,FEW,0.00,WeatherDisplay:10.37,2013-08-28 09:44:00,
2013-08-28 02:49:00,42.3,0.0,0.00,NNW,334,0.0,0.0,0,0.00,CLR,FEW,0.00,WeatherDisplay:10.37,2013-08-28 09:49:00,
2013-08-28 02:54:00,42.4,0.0,0.00,NNW,334,0.0,1.2,0,0.00,CLR,FEW,0.00,WeatherDisplay:10.37,2013-08-28 09:54:00,
2013-08-28 02:59:00,42.3,0.0,0.00,NNW,334,1.6,3.5,0,0.00,CLR,FEW,0.00,WeatherDisplay:10.37,2013-08-28 09:59:00,
2013-08-28 03:04:00,42.2,0.0,0.00,NNW,334,1.0,2.3,0,0.00,CLR,FEW,0.00,WeatherDisplay:10.37,2013-08-28 10:04:00,
2013-08-28 03:09:00,42.3,0.0,0.00,NNW,334,1.7,3.5,0,0.00,CLR,FEW,0.00,WeatherDisplay:10.37,2013-08-28 10:09:00,
2013-08-28 03:14:00,41.8,0.0,0.00,NNW,334,0.5,3.0,0,0.00,CLR,FEW,0.00,WeatherDisplay:10.37,2013-08-28 10:14:00,
2013-08-28 03:19:00,41.4,0.0,0.00,NNW,334,1.6,3.5,0,0.00,CLR,FEW,0.00,WeatherDisplay:10.37,2013-08-28 10:19:00,
2013-08-28 03:24:00,41.3,0.0,0.00,NNW,334,0.0,0.0,0,0.00,CLR,FEW,0.00,WeatherDisplay:10.37,2013-08-28 10:24:00,
2013-08-28 03:29:00,41.0,0.0,0.00,NNW,334,0.0,0.0,0,0.00,CLR,FEW,0.00,WeatherDisplay:10.37,2013-08-28 10:29:00,
2013-08-28 03:34:00,40.8,0.0,0.00,NNW,334,0.0,0.0,0,0.00,CLR,FEW,0.00,WeatherDisplay:10.37,2013-08-28 10:34:00,
2013-08-28 03:39:00,40.9,0.0,0.00,NNW,335,0.6,2.3,0,0.00,CLR,FEW,0.00,WeatherDisplay:10.37,2013-08-28 10:39:00,
2013-08-28 03:44:00,40.8,0.0,0.00,NNW,335,0.3,1.2,0,0.00,CLR,FEW,0.00,WeatherDisplay:10.37,2013-08-28 10:44:00,
2013-08-28 03:49:00,40.9,0.0,0.00,NNW,335,0.0,0.0,0,0.00,CLR,FEW,0.00,WeatherDisplay:10.37,2013-08-28 10:49:00,
2013-08-28 03:54:00,40.9,0.0,0.00,NNW,335,0.0,0.0,0,0.00,CLR,FEW,0.00,WeatherDisplay:10.37,2013-08-28 10:54:00,
2013-08-28 03:59:00,41.0,0.0,0.00,NNW,335,0.0,0.0,0,0.00,CLR,FEW,0.00,WeatherDisplay:10.37,2013-08-28 10:59:00,
2013-08-28 04:04:00,41.3,0.0,0.00,NNW,335,0.0,0.0,0,0.00,CLR,FEW,0.00,WeatherDisplay:10.37,2013-08-28 11:04:00,
2013-08-28 04:09:00,41.5,0.0,0.00,NNW,335,0.0,1.2,0,0.00,CLR,FEW,0.00,WeatherDisplay:10.37,2013-08-28 11:09:00,
2013-08-28 04:14:00,41.5,0.0,0.00,NNW,335,0.0,0.0,0,0.00,CLR,FEW,0.00,WeatherDisplay:10.37,2013-08-28 11:14:00,
2013-08-28 04:19:00,41.5,0.0,0.00,NNW,335,0.0,0.0,0,0.00,CLR,FEW,0.00,WeatherDisplay:10.37,2013-08-28 11:19:00,
2013-08-28 04:24:00,41.6,0.0,0.00,NNW,335,0.0,0.0,0,0.00,CLR,FEW,0.00,WeatherDisplay:10.37,2013-08-28 11:24:00,
2013-08-28 04:29:00,41.6,0.0,0.00,NNW,335,0.0,0.0,0,0.00,CLR,FEW,0.00,WeatherDisplay:10.37,2013-08-28 11:29:00,
2013-08-28 04:34:00,41.4,0.0,0.00,NNW,335,0.1,1.2,0,0.00,CLR,FEW,0.00,WeatherDisplay:10.37,2013-08-28 11:34:00,
2013-08-28 04:39:00,41.4,0.0,0.00,NNW,335,0.0,0.0,0,0.00,CLR,FEW,0.00,WeatherDisplay:10.37,2013-08-28 11:39:00,
2013-08-28 04:44:00,41.1,0.0,0.00,NNW,335,0.0,0.0,0,0.00,CLR,FEW,0.00,WeatherDisplay:10.37,2013-08-28 11:44:00,
2013-08-28 04:49:00,41.2,0.0,0.00,NNW,335,0.8,2.3,0,0.00,CLR,FEW,0.00,WeatherDisplay:10.37,2013-08-28 11:49:00,
2013-08-28 04:54:00,41.2,0.0,0.00,NNW,335,0.0,0.0,0,0.00,CLR,FEW,0.00,WeatherDisplay:10.37,2013-08-28 11:54:00,
2013-08-28 04:59:00,41.3,0.0,0.00,NNW,335,0.3,1.2,0,0.00,CLR,FEW,0.00,WeatherDisplay:10.37,2013-08-28 11:59:00,
2013-08-28 05:04:00,41.4,0.0,0.00,NNW,335,1.1,2.3,0,0.00,CLR,FEW,0.00,WeatherDisplay:10.37,2013-08-28 12:04:00,
2013-08-28 05:09:00,41.2,0.0,0.00,NNW,335,0.0,0.0,0,0.00,CLR,FEW,0.00,WeatherDisplay:10.37,2013-08-28 12:09:00,
2013-08-28 05:14:00,41.3,0.0,0.00,NNW,335,0.0,0.0,0,0.00,CLR,FEW,0.00,WeatherDisplay:10.37,2013-08-28 12:14:00,
2013-08-28 05:19:00,41.2,0.0,0.00,NNW,335,0.2,2.3,0,0.00,CLR,FEW,0.00,WeatherDisplay:10.37,2013-08-28 12:19:00,
2013-08-28 05:24:00,40.9,0.0,0.00,NNW,334,0.0,1.2,0,0.00,CLR,FEW,0.00,WeatherDisplay:10.37,2013-08-28 12:24:00,
2013-08-28 05:29:00,40.4,0.0,0.00,NNW,334,0.0,0.0,0,0.00,CLR,FEW,0.00,WeatherDisplay:10.37,2013-08-28 12:29:00,
2013-08-28 05:34:00,40.4,0.0,0.00,NNW,334,0.0,0.0,0,0.00,CLR,FEW,0.00,WeatherDisplay:10.37,2013-08-28 12:34:00,
2013-08-28 05:39:00,40.5,0.0,0.00,NNW,334,0.1,1.2,0,0.00,CLR,FEW,0.00,WeatherDisplay:10.37,2013-08-28 12:39:00,
2013-08-28 05:44:00,40.5,0.0,0.00,NNW,334,0.1,1.2,0,0.00,CLR,FEW,0.00,WeatherDisplay:10.37,2013-08-28 12:44:00,
2013-08-28 05:49:00,40.4,0.0,0.00,NNW,334,0.0,0.0,0,0.00,CLR,FEW,0.00,WeatherDisplay:10.37,2013-08-28 12:49:00,
2013-08-28 05:54:00,40.3,0.0,0.00,NNW,334,0.0,0.0,0,0.00,CLR,FEW,0.00,WeatherDisplay:10.37,2013-08-28 12:54:00,
2013-08-28 05:59:00,40.2,0.0,0.00,NNW,334,0.0,0.0,0,0.00,CLR,FEW,0.00,WeatherDisplay:10.37,2013-08-28 12:59:00,
2013-08-28 06:04:00,40.0,0.0,0.00,NNW,334,0.0,0.0,0,0.00,CLR,FEW,0.00,WeatherDisplay:10.37,2013-08-28 13:04:00,
2013-08-28 06:09:00,39.9,0.0,0.00,NNW,336,0.0,0.0,0,0.00,CLR,FEW,0.00,WeatherDisplay:10.37,2013-08-28 13:09:00,
2013-08-28 06:14:00,40.0,0.0,0.00,NNW,335,0.0,1.2,0,0.00,CLR,FEW,0.00,WeatherDisplay:10.37,2013-08-28 13:14:00,
2013-08-28 06:19:00,40.1,0.0,0.00,NNW,335,0.0,0.0,0,0.00,CLR,FEW,0.00,WeatherDisplay:10.37,2013-08-28 13:19:00,
2013-08-28 06:24:00,40.4,0.0,0.00,NNW,334,0.0,1.0,0,0.00,CLR,FEW,0.00,WeatherDisplay:10.37,2013-08-28 13:24:00,
2013-08-28 06:29:00,40.6,0.0,0.00,NNW,334,0.0,1.2,0,0.00,CLR,FEW,0.00,WeatherDisplay:10.37,2013-08-28 13:29:00,
2013-08-28 06:34:00,41.1,0.0,0.00,NNW,334,0.0,0.0,0,0.00,CLR,FEW,0.00,WeatherDisplay:10.37,2013-08-28 13:34:00,
2013-08-28 06:39:00,41.4,0.0,0.00,NNW,334,0.0,0.0,0,0.00,CLR,FEW,0.00,WeatherDisplay:10.37,2013-08-28 13:39:00,
2013-08-28 06:44:00,41.7,0.0,0.00,NNW,334,0.0,0.0,0,0.00,CLR,FEW,0.00,WeatherDisplay:10.37,2013-08-28 13:44:00,
2013-08-28 06:49:00,42.0,0.0,0.00,NNW,334,0.0,0.0,0,0.00,CLR,FEW,0.00,WeatherDisplay:10.37,2013-08-28 13:49:00,
2013-08-28 06:54:00,42.1,0.0,0.00,NNW,334,0.0,0.0,0,0.00,CLR,FEW,0.00,WeatherDisplay:10.37,2013-08-28 13:54:00,
2013-08-28 06:59:00,42.2,0.0,0.00,East,94,0.2,1.2,0,0.00,CLR,FEW,0.00,WeatherDisplay:10.37,2013-08-28 13:59:00,
2013-08-28 07:04:00,42.2,0.0,0.00,East,94,0.0,0.0,0,0.00,CLR,FEW,0.00,WeatherDisplay:10.37,2013-08-28 14:04:00,
2013-08-28 07:09:00,42.3,0.0,0.00,East,95,0.0,0.0,0,0.00,CLR,FEW,0.00,WeatherDisplay:10.37,2013-08-28 14:09:00,
2013-08-28 07:14:00,42.4,0.0,0.00,East,80,0.0,0.0,0,0.00,CLR,FEW,0.00,WeatherDisplay:10.37,2013-08-28 14:14:00,
2013-08-28 07:19:00,42.5,0.0,0.00,East,80,0.0,0.0,0,0.00,CLR,FEW,0.00,WeatherDisplay:10.37,2013-08-28 14:19:00,
2013-08-28 07:24:00,42.9,0.0,0.00,East,80,0.1,1.2,0,0.00,CLR,FEW,0.00,WeatherDisplay:10.37,2013-08-28 14:24:00,
2013-08-28 07:29:00,43.3,0.0,0.00,East,80,0.0,0.0,0,0.00,CLR,FEW,0.00,WeatherDisplay:10.37,2013-08-28 14:29:00,
2013-08-28 07:34:00,43.6,0.0,0.00,ENE,73,0.1,1.2,0,0.00,CLR,FEW,0.00,WeatherDisplay:10.37,2013-08-28 14:34:00,
2013-08-28 07:39:00,44.0,0.0,0.00,ENE,73,0.0,0.0,0,0.00,CLR,FEW,0.00,WeatherDisplay:10.37,2013-08-28 14:39:00,
2013-08-28 07:44:00,44.2,0.0,0.00,ENE,71,0.0,1.2,0,0.00,CLR,FEW,0.00,WeatherDisplay:10.37,2013-08-28 14:44:00,
2013-08-28 07:49:00,44.7,0.0,0.00,ENE,71,0.0,0.0,0,0.00,CLR,FEW,0.00,WeatherDisplay:10.37,2013-08-28 14:49:00,
2013-08-28 07:54:00,45.1,0.0,0.00,ENE,71,0.0,0.0,0,0.00,CLR,FEW,0.00,WeatherDisplay:10.37,2013-08-28 14:54:00,
2013-08-28 07:59:00,45.4,0.0,0.00,ENE,71,0.0,0.0,0,0.00,CLR,FEW,0.00,WeatherDisplay:10.37,2013-08-28 14:59:00,
2013-08-28 08:04:00,46.1,0.0,0.00,ENE,71,0.1,0.0,0,0.00,CLR,FEW,0.00,WeatherDisplay:10.37,2013-08-28 15:04:00,
2013-08-28 08:09:00,46.5,0.0,0.00,ENE,71,0.1,1.2,0,0.00,CLR,FEW,0.00,WeatherDisplay:10.37,2013-08-28 15:09:00,
2013-08-28 08:14:00,47.3,0.0,0.00,ENE,71,0.0,0.0,0,0.00,CLR,FEW,0.00,WeatherDisplay:10.37,2013-08-28 15:14:00,
2013-08-28 08:19:00,47.9,0.0,0.00,ENE,71,0.0,0.0,0,0.00,CLR,FEW,0.00,WeatherDisplay:10.37,2013-08-28 15:19:00,
2013-08-28 08:24:00,48.6,0.0,0.00,ENE,71,0.3,1.2,0,0.00,CLR,FEW,0.00,WeatherDisplay:10.37,2013-08-28 15:24:00,
2013-08-28 08:29:00,49.4,0.0,0.00,ENE,71,0.8,2.3,0,0.00,CLR,FEW,0.00,WeatherDisplay:10.37,2013-08-28 15:29:00,
2013-08-28 08:34:00,50.0,0.0,0.00,ENE,71,0.7,1.2,0,0.00,CLR,FEW,0.00,WeatherDisplay:10.37,2013-08-28 15:34:00,
2013-08-28 08:39:00,50.8,0.0,0.00,ENE,71,0.2,1.2,0,0.00,CLR,FEW,0.00,WeatherDisplay:10.37,2013-08-28 15:39:00,
2013-08-28 08:44:00,51.8,0.0,0.00,ENE,71,0.9,2.3,0,0.00,CLR,FEW,0.00,WeatherDisplay:10.37,2013-08-28 15:44:00,
2013-08-28 08:49:00,52.6,0.0,0.00,ENE,57,0.2,1.2,0,0.00,CLR,FEW,0.00,WeatherDisplay:10.37,2013-08-28 15:49:00,
2013-08-28 08:54:00,53.9,0.0,0.00,ENE,57,0.3,1.2,0,0.00,CLR,FEW,0.00,WeatherDisplay:10.37,2013-08-28 15:54:00,
2013-08-28 08:59:00,54.6,0.0,0.00,ENE,57,1.1,2.3,0,0.00,CLR,FEW,0.00,WeatherDisplay:10.37,2013-08-28 15:59:00,
2013-08-28 09:04:00,55.5,0.0,0.00,ENE,57,0.7,1.2,0,0.00,CLR,FEW,0.00,WeatherDisplay:10.37,2013-08-28 16:04:00,
2013-08-28 09:09:00,56.2,0.0,0.00,ENE,57,1.6,2.3,0,0.00,CLR,FEW,0.00,WeatherDisplay:10.37,2013-08-28 16:09:00,
2013-08-28 09:14:00,57.3,0.0,0.00,ENE,57,0.0,0.0,0,0.00,CLR,FEW,0.00,WeatherDisplay:10.37,2013-08-28 16:14:00,
2013-08-28 09:19:00,58.8,0.0,0.00,ENE,58,0.1,1.2,0,0.00,CLR,FEW,0.00,WeatherDisplay:10.37,2013-08-28 16:19:00,
2013-08-28 09:24:00,60.2,0.0,0.00,ENE,59,0.2,1.2,0,0.00,CLR,FEW,0.00,WeatherDisplay:10.37,2013-08-28 16:24:00,
2013-08-28 09:29:00,62.1,0.0,0.00,ESE,113,3.8,5.8,0,0.00,CLR,FEW,0.00,WeatherDisplay:10.37,2013-08-28 16:29:00,
2013-08-28 09:34:00,65.7,0.0,0.00,ENE,74,3.3,4.6,0,0.00,CLR,FEW,0.00,WeatherDisplay:10.37,2013-08-28 16:34:00,
2013-08-28 09:39:00,68.0,0.0,0.00,SE,129,6.4,9.2,0,0.00,CLR,FEW,0.00,WeatherDisplay:10.37,2013-08-28 16:39:00,
2013-08-28 09:44:00,69.9,0.0,0.00,SE,135,6.1,10.4,0,0.00,CLR,FEW,0.00,WeatherDisplay:10.37,2013-08-28 16:44:00,
2013-08-28 09:49:00,71.3,0.0,0.00,SE,138,5.0,5.8,0,0.00,CLR,FEW,0.00,WeatherDisplay:10.37,2013-08-28 16:49:00,
2013-08-28 09:54:00,72.4,0.0,0.00,ESE,113,10.2,13.8,0,0.00,CLR,FEW,0.00,WeatherDisplay:10.37,2013-08-28 16:54:00,
2013-08-28 09:59:00,72.7,0.0,0.00,SE,134,8.7,11.5,0,0.00,CLR,FEW,0.00,WeatherDisplay:10.37,2013-08-28 16:59:00,
2013-08-28 10:04:00,73.0,0.0,0.00,SSE,166,4.1,9.2,0,0.00,CLR,FEW,0.00,WeatherDisplay:10.37,2013-08-28 17:04:00,
2013-08-28 10:09:00,73.6,0.0,0.00,SE,135,10.4,12.0,0,0.00,CLR,FEW,0.00,WeatherDisplay:10.37,2013-08-28 17:09:00,
2013-08-28 10:14:00,74.5,0.0,0.00,South,172,5.0,6.9,0,0.00,CLR,FEW,0.00,WeatherDisplay:10.37,2013-08-28 17:14:00,
2013-08-28 10:19:00,75.1,0.0,0.00,South,170,9.4,12.7,0,0.00,CLR,FEW,0.00,WeatherDisplay:10.37,2013-08-28 17:19:00,
2013-08-28 10:24:00,75.1,0.0,0.00,SE,143,12.0,21.9,0,0.00,CLR,FEW,0.00,WeatherDisplay:10.37,2013-08-28 17:24:00,
2013-08-28 10:29:00,75.2,0.0,0.00,SSE,163,6.5,12.7,0,0.00,CLR,FEW,0.00,WeatherDisplay:10.37,2013-08-28 17:29:00,
2013-08-28 10:34:00,75.5,0.0,0.00,SSE,149,8.0,13.8,0,0.00,CLR,FEW,0.00,WeatherDisplay:10.37,2013-08-28 17:34:00,
2013-08-28 10:39:00,75.5,0.0,0.00,SSW,194,10.2,19.0,0,0.00,CLR,FEW,0.00,WeatherDisplay:10.37,2013-08-28 17:39:00,
2013-08-28 10:44:00,75.5,0.0,0.00,SW,228,12.1,16.1,0,0.00,CLR,FEW,0.00,WeatherDisplay:10.37,2013-08-28 17:44:00,
2013-08-28 10:49:00,75.9,0.0,0.00,SSW,213,12.1,18.4,0,0.00,CLR,FEW,0.00,WeatherDisplay:10.37,2013-08-28 17:49:00,
2013-08-28 10:54:00,75.6,0.0,0.00,South,173,13.9,20.7,0,0.00,CLR,FEW,0.00,WeatherDisplay:10.37,2013-08-28 17:54:00,
2013-08-28 10:59:00,75.4,0.0,0.00,SW,234,13.1,21.0,0,0.00,CLR,FEW,0.00,WeatherDisplay:10.37,2013-08-28 17:59:00,
2013-08-28 11:04:00,76.1,0.0,0.00,SW,219,13.8,19.6,0,0.00,CLR,FEW,0.00,WeatherDisplay:10.37,2013-08-28 18:04:00,
2013-08-28 11:09:00,76.3,0.0,0.00,SSW,202,11.7,15.0,0,0.00,CLR,FEW,0.00,WeatherDisplay:10.37,2013-08-28 18:09:00,
2013-08-28 11:14:00,76.0,0.0,0.00,SSW,201,14.6,19.6,0,0.00,CLR,FEW,0.00,WeatherDisplay:10.37,2013-08-28 18:14:00,
2013-08-28 11:19:00,75.9,0.0,0.00,SW,227,9.0,9.2,0,0.00,CLR,FEW,0.00,WeatherDisplay:10.37,2013-08-28 18:19:00,
2013-08-28 11:24:00,75.9,0.0,0.00,SW,216,10.9,15.0,0,0.00,CLR,FEW,0.00,WeatherDisplay:10.37,2013-08-28 18:24:00,
2013-08-28 11:30:00,76.7,0.0,0.00,South,179,7.6,12.7,0,0.00,CLR,FEW,0.00,WeatherDisplay:10.37,2013-08-28 18:30:00,
2013-08-28 11:35:00,76.9,0.0,0.00,SSW,193,13.5,19.6,0,0.00,CLR,FEW,0.00,WeatherDisplay:10.37,2013-08-28 18:35:00,
2013-08-28 11:40:00,76.8,0.0,0.00,SW,220,10.8,13.8,0,0.00,CLR,FEW,0.00,WeatherDisplay:10.37,2013-08-28 18:40:00,
2013-08-28 11:45:00,77.0,0.0,0.00,SSE,157,2.2,8.1,0,0.00,CLR,FEW,0.00,WeatherDisplay:10.37,2013-08-28 18:45:00,
2013-08-28 11:50:00,77.2,0.0,0.00,South,191,7.2,11.5,0,0.00,CLR,FEW,0.00,WeatherDisplay:10.37,2013-08-28 18:50:00,
2013-08-28 11:55:00,77.1,0.0,0.00,SE,134,7.4,11.5,0,0.00,CLR,FEW,0.00,WeatherDisplay:10.37,2013-08-28 18:55:00,
2013-08-28 12:00:00,77.2,0.0,0.00,South,183,11.9,16.1,0,0.00,CLR,FEW,0.00,WeatherDisplay:10.37,2013-08-28 19:00:00,
2013-08-28 12:05:00,77.3,0.0,0.00,SSE,159,7.5,13.8,0,0.00,CLR,FEW,0.00,WeatherDisplay:10.37,2013-08-28 19:05:00,
2013-08-28 12:10:00,77.7,0.0,0.00,SSE,152,13.8,22.0,0,0.00,CLR,FEW,0.00,WeatherDisplay:10.37,2013-08-28 19:10:00,
2013-08-28 12:15:00,77.2,0.0,0.00,SSE,167,8.2,13.0,0,0.00,CLR,FEW,0.00,WeatherDisplay:10.37,2013-08-28 19:15:00,
2013-08-28 12:20:00,77.0,0.0,0.00,South,169,12.4,18.4,0,0.00,CLR,FEW,0.00,WeatherDisplay:10.37,2013-08-28 19:20:00,
2013-08-28 12:25:00,77.6,0.0,0.00,South,180,9.8,12.0,0,0.00,CLR,FEW,0.00,WeatherDisplay:10.37,2013-08-28 19:25:00,
2013-08-28 12:30:00,77.9,0.0,0.00,SSW,201,3.0,10.4,0,0.00,CLR,FEW,0.00,WeatherDisplay:10.37,2013-08-28 19:30:00,
2013-08-28 12:35:00,77.4,0.0,0.00,ESE,103,10.4,15.0,0,0.00,CLR,FEW,0.00,WeatherDisplay:10.37,2013-08-28 19:35:00,
2013-08-28 12:40:00,77.3,0.0,0.00,ESE,123,5.7,11.5,0,0.00,CLR,FEW,0.00,WeatherDisplay:10.37,2013-08-28 19:40:00,
2013-08-28 12:45:00,77.3,0.0,0.00,SSW,194,4.7,7.0,0,0.00,CLR,FEW,0.00,WeatherDisplay:10.37,2013-08-28 19:45:00,
2013-08-28 12:50:00,78.3,0.0,0.00,South,181,9.7,17.3,0,0.00,CLR,FEW,0.00,WeatherDisplay:10.37,2013-08-28 19:50:00,
2013-08-28 12:55:00,77.9,0.0,0.00,SE,136,8.8,13.0,0,0.00,CLR,FEW,0.00,WeatherDisplay:10.37,2013-08-28 19:55:00,
2013-08-28 13:00:00,78.1,0.0,0.00,SW,218,11.8,17.3,0,0.00,CLR,FEW,0.00,WeatherDisplay:10.37,2013-08-28 20:00:00,
2013-08-28 13:05:00,78.6,0.0,0.00,South,182,6.9,13.8,0,0.00,CLR,FEW,0.00,WeatherDisplay:10.37,2013-08-28 20:05:00,
2013-08-28 13:10:00,79.0,0.0,0.00,South,177,10.1,17.3,0,0.00,CLR,FEW,0.00,WeatherDisplay:10.37,2013-08-28 20:10:00,
2013-08-28 13:15:00,78.9,0.0,0.00,SW,218,7.6,10.4,0,0.00,CLR,FEW,0.00,WeatherDisplay:10.37,2013-08-28 20:15:00,
2013-08-28 13:20:00,78.6,0.0,0.00,SE,134,10.9,17.3,0,0.00,CLR,FEW,0.00,WeatherDisplay:10.37,2013-08-28 20:20:00,
2013-08-28 13:25:00,78.6,0.0,0.00,SSW,209,8.8,16.1,0,0.00,CLR,FEW,0.00,WeatherDisplay:10.37,2013-08-28 20:25:00,
2013-08-28 13:30:00,78.5,0.0,0.00,SE,131,9.3,18.4,0,0.00,CLR,FEW,0.00,WeatherDisplay:10.37,2013-08-28 20:30:00,
2013-08-28 13:35:00,78.4,0.0,0.00,SE,133,11.0,13.8,0,0.00,CLR,FEW,0.00,WeatherDisplay:10.37,2013-08-28 20:35:00,
2013-08-28 13:40:00,78.4,0.0,0.00,ESE,114,8.2,11.5,0,0.00,CLR,FEW,0.00,WeatherDisplay:10.37,2013-08-28 20:40:00,
2013-08-28 13:45:00,79.7,0.0,0.00,WSW,239,14.3,19.6,0,0.00,CLR,FEW,0.00,WeatherDisplay:10.37,2013-08-28 20:45:00,
2013-08-28 13:50:00,78.8,0.0,0.00,SE,127,13.5,20.7,0,0.00,CLR,FEW,0.00,WeatherDisplay:10.37,2013-08-28 20:50:00,
2013-08-28 13:55:00,78.9,0.0,0.00,SW,229,8.1,17.3,0,0.00,CLR,FEW,0.00,WeatherDisplay:10.37,2013-08-28 20:55:00,
2013-08-28 14:00:00,79.7,0.0,0.00,SSW,196,9.1,11.5,0,0.00,CLR,FEW,0.00,WeatherDisplay:10.37,2013-08-28 21:00:00,
2013-08-28 14:05:00,80.7,0.0,0.00,SSW,192,11.4,19.6,0,0.00,CLR,FEW,0.00,WeatherDisplay:10.37,2013-08-28 21:05:00,
2013-08-28 14:10:00,80.9,0.0,0.00,South,183,6.1,10.4,0,0.00,CLR,FEW,0.00,WeatherDisplay:10.37,2013-08-28 21:10:00,
2013-08-28 14:15:00,80.9,0.0,0.00,SW,232,10.6,16.1,0,0.00,CLR,FEW,0.00,WeatherDisplay:10.37,2013-08-28 21:15:00,
2013-08-28 14:20:00,80.5,0.0,0.00,SW,214,9.9,15.0,0,0.00,CLR,FEW,0.00,WeatherDisplay:10.37,2013-08-28 21:20:00,
2013-08-28 14:25:00,80.3,0.0,0.00,SE,125,9.5,16.1,0,0.00,CLR,FEW,0.00,WeatherDisplay:10.37,2013-08-28 21:25:00,
2013-08-28 14:30:00,80.8,0.0,0.00,South,185,8.9,13.8,0,0.00,CLR,FEW,0.00,WeatherDisplay:10.37,2013-08-28 21:30:00,
2013-08-28 14:35:00,81.3,0.0,0.00,SW,227,13.0,18.4,0,0.00,CLR,FEW,0.00,WeatherDisplay:10.37,2013-08-28 21:35:00,
2013-08-28 14:40:00,81.1,0.0,0.00,South,177,9.3,15.0,0,0.00,CLR,FEW,0.00,WeatherDisplay:10.37,2013-08-28 21:40:00,
2013-08-28 14:45:00,80.5,0.0,0.00,WSW,249,4.3,6.9,0,0.00,CLR,FEW,0.00,WeatherDisplay:10.37,2013-08-28 21:45:00,
2013-08-28 14:50:00,80.8,0.0,0.00,NE,41,7.0,11.5,0,0.00,CLR,FEW,0.00,WeatherDisplay:10.37,2013-08-28 21:50:00,
2013-08-28 14:55:00,81.6,0.0,0.00,SSW,200,7.5,11.5,0,0.00,CLR,FEW,0.00,WeatherDisplay:10.37,2013-08-28 21:55:00,
2013-08-28 15:00:00,82.1,0.0,0.00,SE,135,9.8,15.0,0,0.00,CLR,FEW,0.00,WeatherDisplay:10.37,2013-08-28 22:00:00,
2013-08-28 15:05:00,82.1,0.0,0.00,SSE,148,8.4,11.5,0,0.00,CLR,FEW,0.00,WeatherDisplay:10.37,2013-08-28 22:05:00,
2013-08-28 15:10:00,82.1,0.0,0.00,SW,219,7.2,11.5,0,0.00,CLR,FEW,0.00,WeatherDisplay:10.37,2013-08-28 22:10:00,
2013-08-28 15:15:00,82.3,0.0,0.00,SSW,194,17.7,29.9,0,0.00,CLR,FEW,0.00,WeatherDisplay:10.37,2013-08-28 22:15:00,
2013-08-28 15:20:00,82.3,0.0,0.00,SSW,204,17.1,25.3,0,0.00,CLR,FEW,0.00,WeatherDisplay:10.37,2013-08-28 22:20:00,
2013-08-28 15:25:00,82.0,0.0,0.00,SSE,168,10.5,17.3,0,0.00,CLR,FEW,0.00,WeatherDisplay:10.37,2013-08-28 22:25:00,
2013-08-28 15:30:00,82.0,0.0,0.00,SSW,204,14.3,19.6,0,0.00,CLR,FEW,0.00,WeatherDisplay:10.37,2013-08-28 22:30:00,
2013-08-28 15:35:00,82.0,0.0,0.00,SSW,211,15.6,24.0,0,0.00,CLR,FEW,0.00,WeatherDisplay:10.37,2013-08-28 22:35:00,
2013-08-28 15:40:00,81.9,0.0,0.00,SSW,207,12.3,17.3,0,0.00,CLR,FEW,0.00,WeatherDisplay:10.37,2013-08-28 22:40:00,
2013-08-28 15:45:00,81.8,0.0,0.00,WSW,238,12.1,19.6,0,0.00,CLR,FEW,0.00,WeatherDisplay:10.37,2013-08-28 22:45:00,
2013-08-28 15:50:00,82.0,0.0,0.00,SSW,206,12.0,15.0,0,0.00,CLR,FEW,0.00,WeatherDisplay:10.37,2013-08-28 22:50:00,
2013-08-28 15:55:00,82.2,0.0,0.00,SSW,199,8.6,11.5,0,0.00,CLR,FEW,0.00,WeatherDisplay:10.37,2013-08-28 22:55:00,
2013-08-28 16:00:00,82.2,0.0,0.00,SSW,211,15.1,19.6,0,0.00,CLR,FEW,0.00,WeatherDisplay:10.37,2013-08-28 23:00:00,
2013-08-28 16:05:00,82.4,0.0,0.00,SW,231,10.8,19.6,0,0.00,CLR,FEW,0.00,WeatherDisplay:10.37,2013-08-28 23:05:00,
2013-08-28 16:10:00,82.6,0.0,0.00,South,188,12.5,17.3,0,0.00,CLR,FEW,0.00,WeatherDisplay:10.37,2013-08-28 23:10:00,
2013-08-28 16:15:00,82.1,0.0,0.00,South,186,7.5,11.5,0,0.00,CLR,FEW,0.00,WeatherDisplay:10.37,2013-08-28 23:15:00,
2013-08-28 16:20:00,82.1,0.0,0.00,SSE,155,8.3,18.4,0,0.00,CLR,FEW,0.00,WeatherDisplay:10.37,2013-08-28 23:20:00,
2013-08-28 16:25:00,82.4,0.0,0.00,South,190,14.1,18.4,0,0.00,CLR,FEW,0.00,WeatherDisplay:10.37,2013-08-28 23:25:00,
2013-08-28 16:30:00,82.6,0.0,0.00,WSW,243,10.2,13.8,0,0.00,CLR,FEW,0.00,WeatherDisplay:10.37,2013-08-28 23:30:00,
2013-08-28 16:35:00,82.4,0.0,0.00,SW,229,7.0,9.2,0,0.00,CLR,FEW,0.00,WeatherDisplay:10.37,2013-08-28 23:35:00,
2013-08-28 16:40:00,82.4,0.0,0.00,SW,232,3.9,9.2,0,0.00,CLR,FEW,0.00,WeatherDisplay:10.37,2013-08-28 23:40:00,
2013-08-28 16:45:00,82.3,0.0,0.00,SSW,196,4.4,5.8,0,0.00,CLR,FEW,0.00,WeatherDisplay:10.37,2013-08-28 23:45:00,
2013-08-28 16:50:00,82.3,0.0,0.00,ESE,109,7.4,10.4,0,0.00,CLR,FEW,0.00,WeatherDisplay:10.37,2013-08-28 23:50:00,
2013-08-28 16:55:00,82.9,0.0,0.00,SW,228,6.3,12.0,0,0.00,CLR,FEW,0.00,WeatherDisplay:10.37,2013-08-28 23:55:00,
2013-08-28 17:00:00,82.8,0.0,0.00,SSW,211,7.1,11.5,0,0.00,CLR,FEW,0.00,WeatherDisplay:10.37,2013-08-29 00:00:00,
2013-08-28 17:05:00,82.8,0.0,0.00,South,184,7.1,11.5,0,0.00,CLR,FEW,0.00,WeatherDisplay:10.37,2013-08-29 00:05:00,
2013-08-28 17:10:00,82.6,0.0,0.00,South,177,8.0,11.5,0,0.00,CLR,FEW,0.00,WeatherDisplay:10.37,2013-08-29 00:10:00,
2013-08-28 17:15:00,82.9,0.0,0.00,WNW,287,10.5,12.7,0,0.00,CLR,FEW,0.00,WeatherDisplay:10.37,2013-08-29 00:15:00,
2013-08-28 17:20:00,82.7,0.0,0.00,SSW,211,12.8,16.1,0,0.00,CLR,FEW,0.00,WeatherDisplay:10.37,2013-08-29 00:20:00,
2013-08-28 17:25:00,82.5,0.0,0.00,SSW,213,10.2,13.8,0,0.00,CLR,FEW,0.00,WeatherDisplay:10.37,2013-08-29 00:25:00,
2013-08-28 17:30:00,82.4,0.0,0.00,SW,228,11.2,16.1,0,0.00,CLR,FEW,0.00,WeatherDisplay:10.37,2013-08-29 00:30:00,
2013-08-28 17:35:00,82.5,0.0,0.00,South,188,6.7,11.5,0,0.00,CLR,FEW,0.00,WeatherDisplay:10.37,2013-08-29 00:35:00,
2013-08-28 17:40:00,82.4,0.0,0.00,SSW,201,5.3,8.1,0,0.00,CLR,FEW,0.00,WeatherDisplay:10.37,2013-08-29 00:40:00,
2013-08-28 17:45:00,82.4,0.0,0.00,SW,223,12.9,19.6,0,0.00,CLR,FEW,0.00,WeatherDisplay:10.37,2013-08-29 00:45:00,
2013-08-28 17:50:00,82.4,0.0,0.00,SW,236,4.9,9.2,0,0.00,CLR,FEW,0.00,WeatherDisplay:10.37,2013-08-29 00:50:00,
2013-08-28 17:55:00,82.4,0.0,0.00,NW,309,7.2,11.5,0,0.00,CLR,FEW,0.00,WeatherDisplay:10.37,2013-08-29 00:55:00,
2013-08-28 18:00:00,82.3,0.0,0.00,SSW,210,12.0,17.3,0,0.00,CLR,FEW,0.00,WeatherDisplay:10.37,2013-08-29 01:00:00,
2013-08-28 18:05:00,82.2,0.0,0.00,SW,219,8.2,10.4,0,0.00,CLR,FEW,0.00,WeatherDisplay:10.37,2013-08-29 01:05:00,
2013-08-28 18:10:00,82.4,0.0,0.00,SSW,213,4.9,6.9,0,0.00,CLR,FEW,0.00,WeatherDisplay:10.37,2013-08-29 01:10:00,
2013-08-28 18:15:00,83.0,0.0,0.00,SW,220,5.9,8.1,0,0.00,CLR,FEW,0.00,WeatherDisplay:10.37,2013-08-29 01:15:00,
2013-08-28 18:20:00,83.0,0.0,0.00,SW,214,12.3,15.0,0,0.00,CLR,FEW,0.00,WeatherDisplay:10.37,2013-08-29 01:20:00,
2013-08-28 18:25:00,83.2,0.0,0.00,SW,224,8.9,15.0,0,0.00,CLR,FEW,0.00,WeatherDisplay:10.37,2013-08-29 01:25:00,
2013-08-28 18:30:00,83.4,0.0,0.00,SW,214,10.6,16.1,0,0.00,CLR,FEW,0.00,WeatherDisplay:10.37,2013-08-29 01:30:00,
2013-08-28 18:35:00,83.4,0.0,0.00,SW,228,7.2,11.5,0,0.00,CLR,FEW,0.00,WeatherDisplay:10.37,2013-08-29 01:35:00,
2013-08-28 18:40:00,83.5,0.0,0.00,SSW,203,5.8,9.2,0,0.00,CLR,FEW,0.00,WeatherDisplay:10.37,2013-08-29 01:40:00,
2013-08-28 18:45:00,83.6,0.0,0.00,SW,220,4.8,8.1,0,0.00,CLR,FEW,0.00,WeatherDisplay:10.37,2013-08-29 01:45:00,
2013-08-28 18:50:00,83.5,0.0,0.00,South,188,8.6,12.7,0,0.00,CLR,FEW,0.00,WeatherDisplay:10.37,2013-08-29 01:50:00,
2013-08-28 18:55:00,83.1,0.0,0.00,SSW,203,10.1,12.7,0,0.00,CLR,FEW,0.00,WeatherDisplay:10.37,2013-08-29 01:55:00,
2013-08-28 19:00:00,82.9,0.0,0.00,SW,225,5.6,8.1,0,0.00,CLR,FEW,0.00,WeatherDisplay:10.37,2013-08-29 02:00:00,
2013-08-28 19:06:00,82.4,0.0,0.00,SW,225,5.1,7.0,0,0.00,CLR,FEW,0.00,WeatherDisplay:10.37,2013-08-29 02:06:00,
2013-08-28 19:11:00,81.6,0.0,0.00,SSW,203,5.1,8.1,0,0.00,CLR,FEW,0.00,WeatherDisplay:10.37,2013-08-29 02:11:00,
2013-08-28 19:16:00,80.6,0.0,0.00,SW,230,3.7,4.6,0,0.00,CLR,FEW,0.00,WeatherDisplay:10.37,2013-08-29 02:16:00,
2013-08-28 19:21:00,79.6,0.0,0.00,SW,227,4.7,6.0,0,0.00,CLR,FEW,0.00,WeatherDisplay:10.37,2013-08-29 02:21:00,
2013-08-28 19:26:00,78.7,0.0,0.00,SW,227,3.4,5.0,0,0.00,CLR,FEW,0.00,WeatherDisplay:10.37,2013-08-29 02:26:00,
2013-08-28 19:31:00,77.9,0.0,0.00,SW,227,2.9,4.0,0,0.00,CLR,FEW,0.00,WeatherDisplay:10.37,2013-08-29 02:31:00,
2013-08-28 19:36:00,76.5,0.0,0.00,SW,227,2.8,3.5,0,0.00,CLR,FEW,0.00,WeatherDisplay:10.37,2013-08-29 02:36:00,
2013-08-28 19:41:00,75.8,0.0,0.00,SW,227,2.0,3.5,0,0.00,CLR,FEW,0.00,WeatherDisplay:10.37,2013-08-29 02:41:00,
2013-08-28 19:46:00,75.4,0.0,0.00,SW,227,2.2,3.5,0,0.00,CLR,FEW,0.00,WeatherDisplay:10.37,2013-08-29 02:46:00,
2013-08-28 19:51:00,74.6,0.0,0.00,SW,227,2.8,3.5,0,0.00,CLR,FEW,0.00,WeatherDisplay:10.37,2013-08-29 02:51:00,
2013-08-28 19:56:00,73.9,0.0,0.00,SW,227,2.4,3.5,0,0.00,CLR,FEW,0.00,WeatherDisplay:10.37,2013-08-29 02:56:00,
2013-08-28 20:01:00,73.4,0.0,0.00,SW,227,1.8,3.5,0,0.00,CLR,FEW,0.00,WeatherDisplay:10.37,2013-08-29 03:01:00,
2013-08-28 20:06:00,73.0,0.0,0.00,SW,227,2.8,3.5,0,0.00,CLR,FEW,0.00,WeatherDisplay:10.37,2013-08-29 03:06:00,
2013-08-28 20:11:00,72.5,0.0,0.00,SW,225,4.8,5.8,0,0.00,CLR,FEW,0.00,WeatherDisplay:10.37,2013-08-29 03:11:00,
2013-08-28 20:16:00,72.2,0.0,0.00,SSW,211,4.3,4.6,0,0.00,CLR,FEW,0.00,WeatherDisplay:10.37,2013-08-29 03:16:00,
2013-08-28 20:21:00,72.3,0.0,0.00,SSW,211,2.2,3.5,0,0.00,CLR,FEW,0.00,WeatherDisplay:10.37,2013-08-29 03:21:00,
2013-08-28 20:26:00,72.1,0.0,0.00,SSW,211,2.2,3.5,0,0.00,CLR,FEW,0.00,WeatherDisplay:10.37,2013-08-29 03:26:00,
2013-08-28 20:31:00,71.5,0.0,0.00,SSW,211,3.8,4.6,0,0.00,CLR,FEW,0.00,WeatherDisplay:10.37,2013-08-29 03:31:00,
2013-08-28 20:36:00,71.3,0.0,0.00,SSW,211,0.5,1.2,0,0.00,CLR,FEW,0.00,WeatherDisplay:10.37,2013-08-29 03:36:00,
2013-08-28 20:41:00,71.0,0.0,0.00,SSW,211,3.2,6.0,0,0.00,CLR,FEW,0.00,WeatherDisplay:10.37,2013-08-29 03:41:00,
2013-08-28 20:46:00,70.4,0.0,0.00,SSW,212,2.6,3.5,0,0.00,CLR,FEW,0.00,WeatherDisplay:10.37,2013-08-29 03:46:00,
2013-08-28 20:51:00,69.5,0.0,0.00,SW,215,1.7,3.5,0,0.00,CLR,FEW,0.00,WeatherDisplay:10.37,2013-08-29 03:51:00,
2013-08-28 20:56:00,68.8,0.0,0.00,SW,221,1.1,2.3,0,0.00,CLR,FEW,0.00,WeatherDisplay:10.37,2013-08-29 03:56:00,
2013-08-28 21:01:00,68.3,0.0,0.00,SW,215,0.7,1.2,0,0.00,CLR,FEW,0.00,WeatherDisplay:10.37,2013-08-29 04:01:00,
2013-08-28 21:02:00,68.2,0.0,0.00,SW,215,0.3,2.3,0,0.00,CLR,FEW,0.00,WeatherDisplay:10.37,2013-08-29 04:02:00,
2013-08-28 21:07:00,67.9,0.0,0.00,SW,214,0.1,1.2,0,0.00,CLR,FEW,0.00,WeatherDisplay:10.37,2013-08-29 04:07:00,
2013-08-28 21:12:00,67.3,0.0,0.00,SW,215,0.0,0.0,0,0.00,CLR,FEW,0.00,WeatherDisplay:10.37,2013-08-29 04:12:00,
2013-08-28 21:17:00,66.9,0.0,0.00,SSW,213,0.6,3.5,0,0.00,CLR,FEW,0.00,WeatherDisplay:10.37,2013-08-29 04:17:00,
2013-08-28 21:22:00,66.5,0.0,0.00,SSW,212,0.0,0.0,0,0.00,CLR,FEW,0.00,WeatherDisplay:10.37,2013-08-29 04:22:00,
2013-08-28 21:27:00,66.1,0.0,0.00,SSW,213,0.6,1.2,0,0.00,CLR,FEW,0.00,WeatherDisplay:10.37,2013-08-29 04:27:00,
2013-08-28 21:32:00,65.7,0.0,0.00,SW,218,1.7,3.5,0,0.00,CLR,FEW,0.00,WeatherDisplay:10.37,2013-08-29 04:32:00,
2013-08-28 21:37:00,65.3,0.0,0.00,SW,219,1.5,2.3,0,0.00,CLR,FEW,0.00,WeatherDisplay:10.37,2013-08-29 04:37:00,
2013-08-28 21:42:00,65.0,0.0,0.00,SW,214,2.1,3.5,0,0.00,CLR,FEW,0.00,WeatherDisplay:10.37,2013-08-29 04:42:00,
2013-08-28 21:47:00,63.8,0.0,0.00,North,350,3.0,5.8,0,0.00,CLR,FEW,0.00,WeatherDisplay:10.37,2013-08-29 04:47:00,
2013-08-28 21:52:00,62.8,0.0,0.00,North,350,0.0,1.2,0,0.00,CLR,FEW,0.00,WeatherDisplay:10.37,2013-08-29 04:52:00,
2013-08-28 21:57:00,62.4,0.0,0.00,NE,39,3.3,3.5,0,0.00,CLR,FEW,0.00,WeatherDisplay:10.37,2013-08-29 04:57:00,
2013-08-28 22:02:00,61.9,0.0,0.00,NE,47,0.0,0.0,0,0.00,CLR,FEW,0.00,WeatherDisplay:10.37,2013-08-29 05:02:00,
2013-08-28 22:07:00,61.6,0.0,0.00,NE,48,3.0,5.0,0,0.00,CLR,FEW,0.00,WeatherDisplay:10.37,2013-08-29 05:07:00,
2013-08-28 22:12:00,61.4,0.0,0.00,NE,49,1.2,3.5,0,0.00,CLR,FEW,0.00,WeatherDisplay:10.37,2013-08-29 05:12:00,
2013-08-28 22:17:00,61.5,0.0,0.00,NE,49,0.5,2.3,0,0.00,CLR,FEW,0.00,WeatherDisplay:10.37,2013-08-29 05:17:00,
2013-08-28 22:22:00,61.4,0.0,0.00,NE,49,1.6,3.5,0,0.00,CLR,FEW,0.00,WeatherDisplay:10.37,2013-08-29 05:22:00,
2013-08-28 22:27:00,61.2,0.0,0.00,South,186,1.8,3.5,0,0.00,CLR,FEW,0.00,WeatherDisplay:10.37,2013-08-29 05:27:00,
2013-08-28 22:32:00,60.7,0.0,0.00,SSW,197,1.5,3.5,0,0.00,CLR,FEW,0.00,WeatherDisplay:10.37,2013-08-29 05:32:00,
2013-08-28 22:38:00,59.9,0.0,0.00,South,187,2.0,3.5,0,0.00,CLR,FEW,0.00,WeatherDisplay:10.37,2013-08-29 05:38:00,
2013-08-28 22:43:00,59.1,0.0,0.00,South,188,0.8,1.2,0,0.00,CLR,FEW,0.00,WeatherDisplay:10.37,2013-08-29 05:43:00,
2013-08-28 22:48:00,58.7,0.0,0.00,South,188,0.0,0.0,0,0.00,CLR,FEW,0.00,WeatherDisplay:10.37,2013-08-29 05:48:00,
2013-08-28 22:53:00,58.1,0.0,0.00,South,190,1.0,2.3,0,0.00,CLR,FEW,0.00,WeatherDisplay:10.37,2013-08-29 05:53:00,
2013-08-28 22:58:00,57.5,0.0,0.00,South,189,0.0,0.0,0,0.00,CLR,FEW,0.00,WeatherDisplay:10.37,2013-08-29 05:58:00,
2013-08-28 23:03:00,57.3,0.0,0.00,South,190,0.0,0.0,0,0.00,CLR,FEW,0.00,WeatherDisplay:10.37,2013-08-29 06:03:00,
2013-08-28 23:08:00,57.3,0.0,0.00,South,190,1.1,2.3,0,0.00,CLR,FEW,0.00,WeatherDisplay:10.37,2013-08-29 06:08:00,
2013-08-28 23:13:00,57.0,0.0,0.00,South,189,0.6,1.2,0,0.00,CLR,FEW,0.00,WeatherDisplay:10.37,2013-08-29 06:13:00,
2013-08-28 23:18:00,56.8,0.0,0.00,South,189,0.6,2.3,0,0.00,CLR,FEW,0.00,WeatherDisplay:10.37,2013-08-29 06:18:00,
2013-08-28 23:23:00,56.8,0.0,0.00,South,187,1.9,3.5,0,0.00,CLR,FEW,0.00,WeatherDisplay:10.37,2013-08-29 06:23:00,
2013-08-28 23:28:00,57.0,0.0,0.00,South,186,0.0,0.0,0,0.00,CLR,FEW,0.00,WeatherDisplay:10.37,2013-08-29 06:28:00,
2013-08-28 23:33:00,56.4,0.0,0.00,South,186,1.1,2.3,0,0.00,CLR,FEW,0.00,WeatherDisplay:10.37,2013-08-29 06:33:00,
2013-08-28 23:38:00,55.7,0.0,0.00,SSW,192,0.0,1.2,0,0.00,CLR,FEW,0.00,WeatherDisplay:10.37,2013-08-29 06:38:00,
2013-08-28 23:43:00,55.5,0.0,0.00,South,190,0.6,2.3,0,0.00,CLR,FEW,0.00,WeatherDisplay:10.37,2013-08-29 06:43:00,
2013-08-28 23:48:00,54.7,0.0,0.00,SSW,196,1.7,3.0,0,0.00,CLR,FEW,0.00,WeatherDisplay:10.37,2013-08-29 06:48:00,
2013-08-28 23:53:00,54.0,0.0,0.00,SSW,200,1.3,2.3,0,0.00,CLR,FEW,0.00,WeatherDisplay:10.37,2013-08-29 06:53:00,
2013-08-28 23:58:00,53.9,0.0,0.00,SSW,198,0.0,0.0,0,0.00,CLR,FEW,0.00,WeatherDisplay:10.37,2013-08-29 06:58:00,